TimeHST,TemperatureF,Dew PointF,Humidity,Sea Level PressureIn,VisibilityMPH,Wind Direction,Wind SpeedMPH,Gust SpeedMPH,PrecipitationIn,Events,Conditions,WindDirDegrees,DateUTC
12:53 AM,71.1,64.0,78,30.01,10.0,North,3.5,-,N/A,,Partly Cloudy,350,2013-05-09 10:53:00
1:53 AM,70.0,64.0,81,30.00,10.0,Calm,Calm,-,N/A,,Partly Cloudy,0,2013-05-09 11:53:00
2:53 AM,70.0,64.0,81,29.99,10.0,North,3.5,-,N/A,,Scattered Clouds,350,2013-05-09 12:53:00
3:53 AM,70.0,64.0,81,29.99,10.0,Calm,Calm,-,N/A,,Mostly Cloudy,0,2013-05-09 13:53:00
4:53 AM,71.1,64.9,81,30.00,10.0,Calm,Calm,-,N/A,,Overcast,0,2013-05-09 14:53:00
5:53 AM,71.1,64.9,81,30.01,10.0,Calm,Calm,-,N/A,,Overcast,0,2013-05-09 15:53:00
6:53 AM,72.0,66.0,81,30.03,10.0,NNW,3.5,-,N/A,,Mostly Cloudy,340,2013-05-09 16:53:00
7:53 AM,75.9,62.1,62,30.04,10.0,Calm,Calm,-,N/A,,Mostly Cloudy,0,2013-05-09 17:53:00
8:53 AM,78.1,62.1,58,30.04,10.0,WNW,3.5,-,N/A,,Mostly Cloudy,300,2013-05-09 18:53:00
9:53 AM,79.0,64.0,60,30.04,10.0,South,6.9,-,N/A,,Scattered Clouds,190,2013-05-09 19:53:00
10:53 AM,79.0,64.0,60,30.04,10.0,SSW,8.1,-,N/A,,Scattered Clouds,200,2013-05-09 20:53:00
11:53 AM,80.1,64.9,60,30.04,10.0,South,10.4,-,N/A,,Scattered Clouds,180,2013-05-09 21:53:00
12:53 PM,81.0,64.9,58,30.03,10.0,SSW,10.4,-,N/A,,Mostly Cloudy,210,2013-05-09 22:53:00
1:53 PM,80.1,64.9,60,30.01,10.0,SW,9.2,-,N/A,,Mostly Cloudy,220,2013-05-09 23:53:00
2:53 PM,80.1,64.0,58,29.99,10.0,SW,9.2,-,N/A,,Mostly Cloudy,230,2013-05-10 00:53:00
3:53 PM,79.0,64.0,60,29.97,10.0,South,8.1,-,N/A,,Mostly Cloudy,190,2013-05-10 01:53:00
4:53 PM,78.1,66.9,68,29.97,10.0,South,8.1,-,N/A,,Mostly Cloudy,180,2013-05-10 02:53:00
5:53 PM,77.0,66.9,71,29.99,10.0,South,6.9,-,N/A,,Mostly Cloudy,190,2013-05-10 03:53:00
6:53 PM,75.9,66.9,74,30.01,10.0,South,4.6,-,N/A,,Mostly Cloudy,180,2013-05-10 04:53:00
7:53 PM,75.9,68.0,76,30.04,10.0,Calm,Calm,-,N/A,,Mostly Cloudy,0,2013-05-10 05:53:00
8:31 PM,75.2,66.2,73,30.06,10.0,NE,6.9,-,N/A,,Mostly Cloudy,40,2013-05-10 06:31:00
8:53 PM,75.0,66.0,73,30.07,10.0,NE,6.9,-,N/A,,Mostly Cloudy,40,2013-05-10 06:53:00
9:53 PM,73.9,66.0,76,30.09,10.0,NE,6.9,-,N/A,,Mostly Cloudy,40,2013-05-10 07:53:00
10:53 PM,73.9,66.0,76,30.09,10.0,NE,4.6,-,N/A,,Mostly Cloudy,40,2013-05-10 08:53:00
11:53 PM,73.0,64.9,76,30.08,10.0,NE,3.5,-,N/A,,Scattered Clouds,40,2013-05-10 09:53:00